 day,  time,  air_temp(C),  RH(%),  ground_temp10cm(C),  ground_temp20cm(C),  ground_temp40cm(C),  precipitation(mm/h),  Solar_Radiation(MJ/m2h),  lack, 
 06/09/01, 01:00,  15.9,  99,  20.7,  21.2,  20.6,   0.0,  0.00, 
 06/09/01, 02:00,  15.7,  99,  20.5,  21.1,  20.5,   0.0,  0.00, 
 06/09/01, 03:00,  15.4,  99,  20.4,  21.1,  20.7,   0.0,  0.00, 
 06/09/01, 04:00,  15.5,  99,  20.2,  21.0,  20.6,   0.0,  0.00, 
 06/09/01, 05:00,  15.5,  99,  20.1,  20.9,  20.6,   0.0,  0.00, 
 06/09/01, 06:00,  15.2,  99,  19.9,  20.8,  20.6,   0.0,  0.00, 
 06/09/01, 07:00,  15.5,  99,  19.8,  20.8,  20.7,   0.5,  0.00, 
 06/09/01, 08:00,  15.0,  99,  19.6,  20.7,  20.7,   5.0,  0.03, 
 06/09/01, 09:00,  14.8,  99,  19.4,  20.6,  20.7,   2.5,  0.07, 
 06/09/01, 10:00,  15.3,  99,  19.3,  20.5,  20.7,   0.5,  0.29, 
 06/09/01, 11:00,  14.8,  99,  19.3,  20.4,  20.6,   0.5,  0.31, 
 06/09/01, 12:00,  15.3,  99,  19.3,  20.4,  20.7,   0.0,  0.46, 
 06/09/01, 13:00,  15.3,  99,  19.4,  20.3,  20.6,   0.0,  0.25, 
 06/09/01, 14:00,  15.5,  99,  19.4,  20.2,  20.6,   0.0,  0.41, 
 06/09/01, 15:00,  16.9,  99,  19.4,  20.2,  20.6,   0.0,  0.81, 
 06/09/01, 16:00,  16.7,  99,  19.6,  20.1,  20.5,   0.0,  0.86, 
 06/09/01, 17:00,  16.5,  99,  19.7,  20.1,  20.4,   0.5,  0.68, 
 06/09/01, 18:00,  16.5,  99,  19.7,  20.1,  20.6,   0.0,  0.17, 
 06/09/01, 19:00,  15.2,  99,  19.7,  20.1,  20.6,   0.0,  0.00, 
 06/09/01, 20:00,  14.4,  99,  19.5,  20.0,  20.4,   0.0,  0.00, 
 06/09/01, 21:00,  14.5,  99,  19.3,  20.1,  20.5,   0.0,  0.00, 
 06/09/01, 22:00,  14.5,  99,  19.0,  20.1,  20.5,   0.0,  0.00, 
 06/09/01, 23:00,  14.3,  99,  18.9,  20.0,  20.3,   0.0,  0.00, 
 06/09/02, 00:00,  14.2,  99,  18.8,  20.0,  20.5,   0.0,  0.00, 
 06/09/02, 01:00,  12.2,  99,  18.6,  19.9,  20.4,   0.0,  0.00, 
 06/09/02, 02:00,  13.7,  99,  18.5,  19.7,  20.2,   0.0,  0.00, 
 06/09/02, 03:00,  13.4,  99,  18.4,  19.8,  20.2,   0.0,  0.00, 
 06/09/02, 04:00,  12.8,  99,  18.2,  19.7,  20.4,   0.0,  0.00, 
 06/09/02, 05:00,  11.5,  99,  18.1,  19.6,  20.4,   0.0,  0.00, 
 06/09/02, 06:00,  11.2,  99,  17.8,  19.6,  20.4,   0.0,  0.01, 
 06/09/02, 07:00,  13.0,  99,  17.6,  19.5,  20.4,   0.0,  0.40, 
 06/09/02, 08:00,  14.8,  94,  17.6,  19.4,  20.3,   0.0,  1.27, 
 06/09/02, 09:00,  15.7,  93,  17.7,  19.3,  20.1,   0.0,  2.11, 
 06/09/02, 10:00,  18.2,  90,  17.7,  19.1,  20.3,   0.0,  2.65, 
 06/09/02, 11:00,  20.1,  83,  18.6,  19.0,  20.3,   0.0,  2.92, 
 06/09/02, 12:00,  20.1,  80,  19.8,  19.0,  20.3,   0.5,  2.91, 
 06/09/02, 13:00,  20.9,  75,  20.9,  19.1,  20.2,   0.0,  2.50, 
 06/09/02, 14:00,  22.2,  71,  21.3,  19.3,  20.1,   0.0,  2.01, 
 06/09/02, 15:00,  21.2,  78,  21.4,  19.6,  20.1,   0.0,  2.07, 
 06/09/02, 16:00,  20.2,  78,  21.4,  19.8,  20.0,   0.0,  1.66, 
 06/09/02, 17:00,  19.4,  77,  21.3,  19.9,  20.0,   0.0,  0.79, 
 06/09/02, 18:00,  18.0,  82,  21.2,  20.1,  20.0,   0.0,  0.31, 
 06/09/02, 19:00,  16.0,  95,  21.0,  20.2,  20.0,   0.0,  0.02, 
 06/09/02, 20:00,  15.4,  99,  20.7,  20.3,  19.9,   0.0,  0.00, 
 06/09/02, 21:00,  15.1,  99,  20.4,  20.3,  20.1,   0.0,  0.00, 
 06/09/02, 22:00,  15.4,  99,  20.2,  20.3,  20.1,   0.0,  0.00, 
 06/09/02, 23:00,  14.7,  99,  20.0,  20.3,  20.1,   0.0,  0.00, 
 06/09/03, 00:00,  13.7,  99,  19.8,  20.2,  20.0,   0.0,  0.00, 
 06/09/03, 01:00,  14.1,  99,  19.6,  20.2,  20.0,   0.0,  0.00, 
 06/09/03, 02:00,  12.7,  99,  19.4,  20.1,  20.1,   0.0,  0.00, 
 06/09/03, 03:00,  12.7,  99,  19.0,  20.1,  20.0,   0.0,  0.00, 
 06/09/03, 04:00,  13.2,  99,  18.8,  20.0,  20.0,   0.0,  0.00, 
 06/09/03, 05:00,  13.1,  99,  18.6,  19.9,  20.0,   0.0,  0.00, 
 06/09/03, 06:00,  12.2,  99,  18.4,  19.8,  20.0,   0.0,  0.00, 
 06/09/03, 07:00,  14.1,  99,  18.4,  19.7,  19.9,   0.0,  0.35, 
 06/09/03, 08:00,  15.0,  99,  18.4,  19.7,  20.1,   0.0,  0.93, 
 06/09/03, 09:00,  16.7,  95,  18.4,  19.6,  20.1,   0.0,  1.50, 
 06/09/03, 10:00,  17.0,  92,  18.6,  19.5,  20.1,   0.0,  1.40, 
 06/09/03, 11:00,  18.1,  92,  19.0,  19.5,  20.1,   0.0,  2.41, 
 06/09/03, 12:00,  20.7,  76,  19.8,  19.4,  20.1,   0.0,  2.83, 
 06/09/03, 13:00,  20.3,  80,  20.6,  19.5,  20.0,   0.0,  2.07, 
 06/09/03, 14:00,  19.9,  78,  21.0,  19.6,  20.0,   0.0,  1.44, 
 06/09/03, 15:00,  22.3,  73,  21.1,  19.7,  20.0,   0.0,  2.74, 
 06/09/03, 16:00,  20.8,  79,  21.3,  19.8,  20.0,   0.0,  2.13, 
 06/09/03, 17:00,  20.1,  83,  21.3,  20.0,  20.1,   0.0,  1.56, 
 06/09/03, 18:00,  18.5,  92,  21.2,  20.1,  20.1,   0.0,  0.59, 
 06/09/03, 19:00,  17.5,  99,  21.0,  20.2,  20.0,   0.0,  0.01, 
 06/09/03, 20:00,  17.5,  98,  20.8,  20.3,  20.0,   0.0,  0.00, 
 06/09/03, 21:00,  16.9,  93,  20.6,  20.3,  19.9,   0.0,  0.00, 
 06/09/03, 22:00,  17.0,  88,  20.4,  20.3,  19.9,   0.0,  0.00, 
 06/09/03, 23:00,  16.4,  96,  20.2,  20.3,  19.8,   0.0,  0.00, 
 06/09/04, 00:00,  16.1,  99,  20.0,  20.3,  20.0,   0.0,  0.00, 
 06/09/04, 01:00,  15.6,  99,  19.9,  20.2,  20.0,   0.0,  0.00, 
 06/09/04, 02:00,  14.9,  95,  19.7,  20.2,  20.0,   0.0,  0.00, 
 06/09/04, 03:00,  14.4,  95,  19.5,  20.2,  20.0,   0.0,  0.00, 
 06/09/04, 04:00,  14.2,  96,  19.1,  20.1,  19.9,   0.0,  0.00, 
 06/09/04, 05:00,  13.6,  99,  18.9,  20.0,  19.9,   0.0,  0.00, 
 06/09/04, 06:00,  13.2,  99,  18.7,  20.0,  19.9,   0.0,  0.00, 
 06/09/04, 07:00,  16.3,  92,  18.6,  19.9,  20.0,   0.0,  0.46, 
 06/09/04, 08:00,  18.2,  79,  18.4,  19.8,  19.8,   0.0,  1.25, 
 06/09/04, 09:00,  18.8,  78,  18.6,  19.7,  20.0,   0.0,  2.01, 
 06/09/04, 10:00,  20.1,  80,  18.6,  19.6,  20.0,   0.0,  2.62, 
 06/09/04, 11:00,  22.0,  70,  19.5,  19.5,  20.0,   0.0,  3.17, 
 06/09/04, 12:00,  22.4,  69,  20.7,  19.5,  20.0,   0.5,  3.15, 
 06/09/04, 13:00,  23.0,  68,  21.8,  19.6,  20.0,   0.0,  2.68, 
 06/09/04, 14:00,  23.2,  67,  22.2,  19.8,  20.0,   0.0,  2.29, 
 06/09/04, 15:00,  22.0,  72,  22.2,  20.0,  19.9,   0.0,  2.37, 
 06/09/04, 16:00,  22.4,  72,  22.1,  20.2,  19.9,   0.0,  2.09, 
 06/09/04, 17:00,  20.5,  75,  22.1,  20.4,  19.9,   0.0,  0.97, 
 06/09/04, 18:00,  18.7,  79,  21.9,  20.5,  19.9,   0.0,  0.33, 
 06/09/04, 19:00,  16.5,  94,  21.6,  20.6,  19.9,   0.0,  0.00, 
 06/09/04, 20:00,  16.7,  87,  21.3,  20.7,  19.9,   0.0,  0.00, 
 06/09/04, 21:00,  15.3,  96,  20.9,  20.7,  19.9,   0.0,  0.00, 
 06/09/04, 22:00,  14.7,  99,  20.6,  20.7,  19.9,   0.0,  0.00, 
 06/09/04, 23:00,  16.1,  88,  20.3,  20.7,  19.9,   0.0,  0.00, 
 06/09/05, 00:00,  14.1,  99,  20.0,  20.6,  19.9,   0.0,  0.00, 
 06/09/05, 01:00,  13.9,  99,  19.7,  20.5,  19.9,   0.0,  0.00, 
 06/09/05, 02:00,  13.7,  99,  19.4,  20.4,  19.9,   0.0,  0.00, 
 06/09/05, 03:00,  14.7,  90,  19.1,  20.3,  19.8,   0.0,  0.00, 
 06/09/05, 04:00,  16.1,  81,  18.9,  20.2,  19.9,   0.0,  0.00, 
 06/09/05, 05:00,  16.2,  80,  18.7,  20.1,  19.9,   0.0,  0.00, 
 06/09/05, 06:00,  15.5,  85,  18.5,  20.0,  19.9,   0.0,  0.00, 
 06/09/05, 07:00,  16.7,  86,  18.4,  19.9,  20.0,   0.0,  0.45, 
 06/09/05, 08:00,  18.7,  76,  18.4,  19.8,  20.0,   0.0,  1.24, 
 06/09/05, 09:00,  20.1,  75,  18.5,  19.7,  20.0,   0.0,  2.04, 
 06/09/05, 10:00,  18.6,  90,  18.6,  19.6,  19.8,   0.0,  2.26, 
 06/09/05, 11:00,  18.7,  90,  19.2,  19.6,  20.0,   0.0,  1.32, 
 06/09/05, 12:00,  19.4,  89,  19.5,  19.5,  20.0,   0.0,  1.33, 
 06/09/05, 13:00,  19.0,  92,  19.9,  19.6,  20.0,   0.0,  1.82, 
 06/09/05, 14:00,  18.0,  97,  20.3,  19.6,  20.0,   0.0,  0.93, 
 06/09/05, 15:00,  17.3,  99,  20.4,  19.7,  19.9,   0.0,  0.56, 
 06/09/05, 16:00,  16.2,  99,  20.4,  19.8,  19.9,   0.0,  0.19, 
 06/09/05, 17:00,  15.7,  99,  20.3,  19.8,  19.9,   0.0,  0.30, 
 06/09/05, 18:00,  15.3,  99,  20.2,  19.9,  19.9,   0.0,  0.10, 
 06/09/05, 19:00,  14.5,  99,  20.0,  19.9,  19.7,   0.0,  0.00, 
 06/09/05, 20:00,  14.2,  99,  19.8,  19.9,  19.9,   0.0,  0.00, 
 06/09/05, 21:00,  13.9,  99,  19.7,  19.9,  19.8,   0.0,  0.00, 
 06/09/05, 22:00,  13.4,  99,  19.5,  19.9,  19.9,   0.0,  0.00, 
 06/09/05, 23:00,  13.6,  99,  19.3,  19.9,  19.9,   0.0,  0.00, 
 06/09/06, 00:00,  13.4,  99,  19.1,  19.8,  19.9,   0.0,  0.00, 
 06/09/06, 01:00,  13.3,  99,  18.9,  19.8,  19.9,   0.0,  0.00, 
 06/09/06, 02:00,  13.2,  99,  18.8,  19.7,  19.9,   0.0,  0.00, 
 06/09/06, 03:00,  12.8,  99,  18.6,  19.7,  19.8,   0.0,  0.00, 
 06/09/06, 04:00,  12.7,  99,  18.5,  19.6,  19.8,   0.0,  0.00, 
 06/09/06, 05:00,  12.1,  99,  18.4,  19.6,  19.7,   0.0,  0.00, 
 06/09/06, 06:00,  11.4,  99,  18.2,  19.5,  19.8,   0.0,  0.00, 
 06/09/06, 07:00,  12.8,  99,  18.0,  19.4,  19.6,   0.0,  0.36, 
 06/09/06, 08:00,  14.9,  99,  18.0,  19.3,  19.8,   0.0,  1.13, 
 06/09/06, 09:00,  15.2,  99,  18.2,  19.3,  19.8,   0.0,  0.55, 
 06/09/06, 10:00,  16.2,  99,  18.4,  19.1,  19.8,   0.0,  0.86, 
 06/09/06, 11:00,  16.8,  99,  18.6,  19.1,  19.8,   0.0,  1.03, 
 06/09/06, 12:00,  17.0,  99,  18.9,  19.1,  19.8,   0.0,  0.92, 
 06/09/06, 13:00,  17.2,  99,  19.1,  19.1,  19.7,   1.0,  0.61, 
 06/09/06, 14:00,  16.3,  99,  19.3,  19.1,  19.5,   0.5,  0.43, 
 06/09/06, 15:00,  16.5,  99,  19.4,  19.1,  19.5,   1.5,  0.27, 
 06/09/06, 16:00,  16.3,  99,  19.3,  19.3,  19.6,   1.5,  0.12, 
 06/09/06, 17:00,  15.7,  99,  19.1,  19.3,  19.6,   7.0,  0.00, 
 06/09/06, 18:00,  15.6,  99,  18.9,  19.3,  19.6,  11.5,  0.00, 
 06/09/06, 19:00,  15.7,  99,  18.5,  19.3,  19.5,  12.0,  0.00, 
 06/09/06, 20:00,  16.5,  99,  18.3,  19.1,  19.6,  11.5,  0.00, 
 06/09/06, 21:00,  16.5,  99,  18.1,  19.0,  19.5,  12.0,  0.00, 
 06/09/06, 22:00,  16.5,  99,  17.8,  18.9,  19.3,   4.0,  0.00, 
 06/09/06, 23:00,  16.8,  99,  17.8,  18.8,  19.4,   1.5,  0.00, 
 06/09/07, 00:00,  16.5,  99,  17.8,  18.7,  19.5,   0.5,  0.00, 
 06/09/07, 01:00,  16.6,  99,  17.8,  18.6,  19.3,   0.0,  0.00, 
 06/09/07, 02:00,  16.9,  99,  17.8,  18.6,  19.3,   0.0,  0.00, 
 06/09/07, 03:00,  16.7,  99,  17.7,  18.5,  19.3,   0.0,  0.00, 
 06/09/07, 04:00,  17.0,  99,  17.7,  18.5,  19.3,   0.0,  0.00, 
 06/09/07, 05:00,  16.9,  99,  17.7,  18.4,  19.3,   0.5,  0.00, 
 06/09/07, 06:00,  17.6,  97,  17.7,  18.4,  19.2,   0.0,  0.00, 
 06/09/07, 07:00,  17.4,  97,  17.7,  18.4,  19.2,   0.0,  0.01, 
 06/09/07, 08:00,  18.1,  98,  17.7,  18.4,  19.2,   0.0,  0.23, 
 06/09/07, 09:00,  18.7,  99,  17.8,  18.3,  19.2,   0.0,  0.53, 
 06/09/07, 10:00,  19.4,  95,  18.0,  18.3,  19.2,   0.0,  0.99, 
 06/09/07, 11:00,  19.5,  96,  18.4,  18.4,  19.1,   0.0,  0.82, 
 06/09/07, 12:00,  19.7,  99,  18.7,  18.3,  19.0,   0.0,  0.94, 
 06/09/07, 13:00,  19.6,  99,  19.0,  18.4,  19.1,   0.0,  0.85, 
 06/09/07, 14:00,  20.1,  99,  19.4,  18.5,  19.2,   0.5,  1.04, 
 06/09/07, 15:00,  19.3,  99,  19.6,  18.5,  19.2,   0.5,  0.43, 
 06/09/07, 16:00,  18.9,  99,  19.7,  18.6,  19.2,   0.5,  0.23, 
 06/09/07, 17:00,  18.4,  99,  19.8,  18.7,  19.2,   0.5,  0.06, 
 06/09/07, 18:00,  18.0,  99,  19.7,  18.8,  19.1,   0.0,  0.00, 
 06/09/07, 19:00,  18.1,  99,  19.6,  18.9,  19.1,   4.0,  0.00, 
 06/09/07, 20:00,  17.8,  99,  19.5,  19.0,  19.0,   1.5,  0.00, 
 06/09/07, 21:00,  17.2,  99,  19.4,  19.0,  19.1,   6.5,  0.00, 
 06/09/07, 22:00,  17.2,  99,  19.1,  19.0,  18.9,   0.5,  0.00, 
 06/09/07, 23:00,  17.1,  99,  19.0,  19.0,  19.0,   0.0,  0.00, 
 06/09/08, 00:00,  17.0,  99,  18.9,  19.0,  19.0,   0.5,  0.00, 
 06/09/08, 01:00,  16.8,  99,  18.8,  19.0,  18.9,   1.0,  0.00, 
 06/09/08, 02:00,  16.6,  99,  18.8,  19.0,  19.0,   0.5,  0.00, 
 06/09/08, 03:00,  16.4,  99,  18.7,  19.0,  19.1,   0.0,  0.00, 
 06/09/08, 04:00,  16.7,  99,  18.6,  18.9,  19.0,   0.0,  0.00, 
 06/09/08, 05:00,  16.6,  99,  18.5,  18.9,  19.0,   0.0,  0.00, 
 06/09/08, 06:00,  16.6,  99,  18.4,  18.9,  19.0,   0.0,  0.00, 
 06/09/08, 07:00,  17.4,  99,  18.4,  18.8,  19.1,   0.0,  0.15, 
 06/09/08, 08:00,  18.6,  99,  18.3,  18.8,  19.0,   0.0,  0.52, 
 06/09/08, 09:00,  19.8,  99,  18.5,  18.8,  19.2,   0.0,  1.00, 
 06/09/08, 10:00,  22.5,  89,  18.9,  18.8,  19.2,   0.0,  2.70, 
 06/09/08, 11:00,  22.3,  89,  19.9,  18.8,  19.0,   0.5,  2.80, 
 06/09/08, 12:00,  23.8,  89,  21.1,  18.8,  19.1,   0.0,  3.25, 
 06/09/08, 13:00,  24.6,  85,  22.2,  19.0,  19.1,   0.0,  2.76, 
 06/09/08, 14:00,  24.5,  86,  22.9,  19.3,  19.1,   0.0,  1.64, 
 06/09/08, 15:00,  23.7,  91,  23.0,  19.6,  19.1,   0.0,  0.89, 
 06/09/08, 16:00,  22.4,  90,  23.0,  19.9,  19.1,   0.0,  0.51, 
 06/09/08, 17:00,  22.5,  96,  22.8,  20.1,  19.1,   0.0,  0.60, 
 06/09/08, 18:00,  21.2,  98,  22.6,  20.3,  18.9,   0.0,  0.20, 
 06/09/08, 19:00,  20.0,  99,  22.4,  20.4,  19.2,   0.0,  0.00, 
 06/09/08, 20:00,  19.9,  99,  22.2,  20.5,  19.0,   0.0,  0.00, 
 06/09/08, 21:00,  19.8,  99,  21.9,  20.6,  19.2,   0.0,  0.00, 
 06/09/08, 22:00,  19.6,  99,  21.7,  20.6,  19.2,   0.0,  0.00, 
 06/09/08, 23:00,  19.5,  99,  21.6,  20.6,  19.2,   0.0,  0.00, 
 06/09/09, 00:00,  19.0,  99,  21.4,  20.6,  19.3,   0.0,  0.00, 
 06/09/09, 01:00,  18.6,  99,  21.3,  20.6,  19.3,   0.0,  0.00, 
 06/09/09, 02:00,  18.1,  99,  21.1,  20.6,  19.3,   0.0,  0.00, 
 06/09/09, 03:00,  18.3,  99,  20.9,  20.6,  19.4,   0.0,  0.00, 
 06/09/09, 04:00,  17.8,  99,  20.7,  20.5,  19.4,   0.0,  0.00, 
 06/09/09, 05:00,  18.1,  99,  20.6,  20.5,  19.2,   0.0,  0.00, 
 06/09/09, 06:00,  18.1,  99,  20.5,  20.5,  19.2,   0.0,  0.00, 
 06/09/09, 07:00,  18.6,  99,  20.4,  20.4,  19.5,   0.0,  0.16, 
 06/09/09, 08:00,  19.0,  99,  20.3,  20.4,  19.5,   0.0,  0.37, 
 06/09/09, 09:00,  21.0,  93,  20.4,  20.3,  19.5,   0.0,  1.16, 
 06/09/09, 10:00,  20.9,  99,  20.6,  20.3,  19.5,   0.0,  1.47, 
 06/09/09, 11:00,  21.3,  99,  21.0,  20.2,  19.5,   0.0,  2.07, 
 06/09/09, 12:00,  23.7,  90,  21.6,  20.3,  19.6,   0.0,  2.08, 
 06/09/09, 13:00,  25.1,  78,  22.3,  20.3,  19.7,   0.0,  2.88, 
 06/09/09, 14:00,  25.7,  76,  23.0,  20.4,  19.7,   0.0,  2.37, 
 06/09/09, 15:00,  24.4,  83,  23.2,  20.6,  19.7,   0.0,  1.89, 
 06/09/09, 16:00,  22.5,  90,  23.1,  20.8,  19.7,   0.0,  0.90, 
 06/09/09, 17:00,  21.8,  92,  23.0,  20.9,  19.7,   0.0,  0.87, 
 06/09/09, 18:00,  20.5,  96,  22.9,  21.1,  19.7,   0.0,  0.22, 
 06/09/09, 19:00,  19.8,  99,  22.6,  21.1,  19.7,   0.0,  0.00, 
 06/09/09, 20:00,  19.1,  99,  22.3,  21.2,  19.7,   0.0,  0.00, 
 06/09/09, 21:00,  18.6,  99,  22.0,  21.2,  19.7,   0.0,  0.00, 
 06/09/09, 22:00,  19.1,  99,  21.8,  21.2,  19.7,   0.0,  0.00, 
 06/09/09, 23:00,  18.9,  99,  21.6,  21.2,  19.7,   0.0,  0.00, 
 06/09/10, 00:00,  18.7,  99,  21.4,  21.2,  19.7,   0.0,  0.00, 
 06/09/10, 01:00,  18.2,  99,  21.3,  21.1,  19.7,   0.0,  0.00, 
 06/09/10, 02:00,  18.3,  97,  21.1,  21.1,  19.8,   0.0,  0.00, 
 06/09/10, 03:00,  18.2,  94,  20.9,  21.0,  19.7,   0.0,  0.00, 
 06/09/10, 04:00,  16.4,  99,  20.6,  20.9,  19.8,   0.0,  0.00, 
 06/09/10, 05:00,  16.1,  99,  20.4,  20.9,  19.8,   0.0,  0.00, 
 06/09/10, 06:00,  17.9,  92,  20.2,  20.8,  19.8,   0.0,  0.01, 
 06/09/10, 07:00,  19.2,  90,  20.1,  20.7,  19.9,   0.0,  0.47, 
 06/09/10, 08:00,  20.2,  84,  20.1,  20.6,  19.9,   0.0,  0.86, 
 06/09/10, 09:00,  21.1,  84,  20.1,  20.5,  19.7,   0.0,  1.30, 
 06/09/10, 10:00,  21.2,  83,  20.4,  20.5,  19.8,   0.0,  1.40, 
 06/09/10, 11:00,  21.5,  86,  20.7,  20.4,  19.8,   0.0,  1.49, 
 06/09/10, 12:00,  22.5,  83,  21.1,  20.4,  19.8,   0.0,  1.85, 
 06/09/10, 13:00,  22.3,  88,  21.6,  20.4,  19.8,   0.0,  1.52, 
 06/09/10, 14:00,  20.0,  99,  21.8,  20.5,  19.8,   0.0,  0.49, 
 06/09/10, 15:00,  20.3,  99,  21.9,  20.6,  19.8,   1.0,  0.79, 
 06/09/10, 16:00,  17.6,  99,  21.9,  20.7,  19.7,   0.5,  0.25, 
 06/09/10, 17:00,  17.4,  99,  21.8,  20.7,  19.9,   0.0,  0.15, 
 06/09/10, 18:00,  17.3,  99,  21.6,  20.8,  19.9,   0.0,  0.08, 
 06/09/10, 19:00,  16.8,  99,  21.4,  20.8,  19.9,   0.0,  0.00, 
 06/09/10, 20:00,  16.7,  99,  21.2,  20.9,  19.9,   0.5,  0.00, 
 06/09/10, 21:00,  16.6,  99,  20.9,  20.8,  19.9,   0.0,  0.00, 
 06/09/10, 22:00,  16.3,  99,  20.7,  20.8,  19.9,   0.0,  0.00, 
 06/09/10, 23:00,  16.0,  99,  20.5,  20.8,  19.9,   0.0,  0.00, 
 06/09/11, 00:00,  16.2,  99,  20.4,  20.7,  19.9,   0.0,  0.00, 
 06/09/11, 01:00,  15.9,  99,  20.2,  20.6,  19.9,   0.0,  0.00, 
 06/09/11, 02:00,  15.6,  99,  20.1,  20.6,  19.9,   0.5,  0.00, 
 06/09/11, 03:00,  15.6,  99,  19.9,  20.5,  19.9,   0.0,  0.00, 
 06/09/11, 04:00,  15.2,  99,  19.8,  20.4,  20.0,   0.0,  0.00, 
 06/09/11, 05:00,  14.4,  99,  19.7,  20.4,  20.0,   0.5,  0.00, 
 06/09/11, 06:00,  14.2,  99,  19.5,  20.3,  20.0,   0.0,  0.00, 
 06/09/11, 07:00,  14.7,  99,  19.4,  20.2,  20.0,   0.0,  0.08, 
 06/09/11, 08:00,  13.7,  99,  19.3,  20.2,  19.9,   0.0,  0.42, 
 06/09/11, 09:00,  13.8,  99,  19.3,  20.0,  20.0,   0.0,  0.40, 
 06/09/11, 10:00,  14.8,  99,  19.3,  20.0,  19.9,   0.0,  1.44, 
 06/09/11, 11:00,  16.1,  99,  19.6,  20.0,  19.9,   0.0,  1.56, 
 06/09/11, 12:00,  16.9,  99,  19.9,  19.9,  19.9,   0.0,  1.96, 
 06/09/11, 13:00,  17.7,  99,  20.4,  19.9,  19.9,   0.0,  2.18, 
 06/09/11, 14:00,  18.2,  99,  21.0,  19.9,  19.9,   0.0,  2.26, 
 06/09/11, 15:00,  18.4,  99,  21.2,  20.0,  19.9,   0.5,  1.02, 
 06/09/11, 16:00,  18.1,  99,  21.3,  20.1,  19.9,   0.0,  0.86, 
 06/09/11, 17:00,  16.9,  99,  21.3,  20.2,  19.9,   0.0,  0.52, 
 06/09/11, 18:00,  15.8,  99,  21.1,  20.3,  19.9,   0.0,  0.06, 
 06/09/11, 19:00,  15.5,  99,  20.9,  20.4,  19.9,   0.0,  0.00, 
 06/09/11, 20:00,  15.5,  99,  20.7,  20.4,  19.9,   0.0,  0.00, 
 06/09/11, 21:00,  15.2,  99,  20.5,  20.4,  19.9,   0.0,  0.00, 
 06/09/11, 22:00,  15.3,  99,  20.2,  20.4,  19.8,   0.0,  0.00, 
 06/09/11, 23:00,  15.9,  99,  20.0,  20.4,  19.8,   0.0,  0.00, 
 06/09/12, 00:00,  16.1,  99,  19.8,  20.3,  19.8,   0.0,  0.00, 
 06/09/12, 01:00,  15.7,  99,  19.7,  20.2,  19.8,   0.0,  0.00, 
 06/09/12, 02:00,  15.9,  99,  19.6,  20.2,  19.8,   0.0,  0.00, 
 06/09/12, 03:00,  15.9,  99,  19.5,  20.1,  19.8,   0.0,  0.00, 
 06/09/12, 04:00,  14.4,  99,  19.4,  20.0,  19.8,   2.5,  0.00, 
 06/09/12, 05:00,  14.5,  99,  19.1,  20.0,  19.9,   1.0,  0.00, 
 06/09/12, 06:00,  14.7,  99,  19.0,  19.9,  19.8,   0.0,  0.00, 
 06/09/12, 07:00,  14.5,  99,  18.9,  19.9,  19.8,   0.0,  0.01, 
 06/09/12, 08:00,  14.5,  99,  18.8,  19.8,  19.7,   0.5,  0.09, 
 06/09/12, 09:00,  14.6,  99,  18.7,  19.7,  19.8,   0.5,  0.14, 
 06/09/12, 10:00,  14.8,  99,  18.7,  19.7,  19.8,   0.5,  0.38, 
 06/09/12, 11:00,  14.8,  99,  18.7,  19.6,  19.7,   0.0,  0.35, 
 06/09/12, 12:00,  14.7,  99,  18.8,  19.5,  19.8,   0.5,  0.38, 
 06/09/12, 13:00,  14.4,  99,  18.8,  19.5,  19.8,   1.0,  0.35, 
 06/09/12, 14:00,  15.3,  99,  18.8,  19.5,  19.8,   0.5,  0.59, 
 06/09/12, 15:00,  14.8,  99,  18.8,  19.4,  19.7,   1.5,  0.24, 
 06/09/12, 16:00,  14.6,  99,  18.8,  19.4,  19.8,   1.0,  0.18, 
 06/09/12, 17:00,  13.4,  99,  18.7,  19.4,  19.7,   0.5,  0.06, 
 06/09/12, 18:00,  13.4,  99,  18.6,  19.4,  19.7,   0.5,  0.00, 
 06/09/12, 19:00,  13.4,  99,  18.5,  19.3,  19.7,   0.0,  0.00, 
 06/09/12, 20:00,  13.4,  99,  18.4,  19.3,  19.7,   1.0,  0.00, 
 06/09/12, 21:00,  12.7,  99,  18.3,  19.1,  19.7,   0.5,  0.00, 
 06/09/12, 22:00,  13.0,  99,  18.0,  19.1,  19.7,   1.0,  0.00, 
 06/09/12, 23:00,  12.5,  99,  17.9,  19.0,  19.6,   0.5,  0.00, 
 06/09/13, 00:00,  12.5,  99,  17.8,  18.9,  19.6,   0.5,  0.00, 
 06/09/13, 01:00,  13.1,  99,  17.6,  18.9,  19.6,   2.0,  0.00, 
 06/09/13, 02:00,  13.5,  99,  17.5,  18.8,  19.6,   2.5,  0.00, 
 06/09/13, 03:00,  14.2,  99,  17.3,  18.7,  19.6,   1.5,  0.00, 
 06/09/13, 04:00,  12.0,  99,  17.2,  18.6,  19.5,   8.0,  0.00, 
 06/09/13, 05:00,  13.8,  99,  16.8,  18.4,  19.5,   6.5,  0.00, 
 06/09/13, 06:00,  13.7,  99,  16.6,  18.3,  19.3,   3.5,  0.00, 
 06/09/13, 07:00,  13.4,  99,  16.7,  18.3,  19.4,   1.5,  0.03, 
 06/09/13, 08:00,  13.8,  99,  16.6,  18.0,  19.4,   2.5,  0.17, 
 06/09/13, 09:00,  14.7,  99,  16.6,  17.9,  19.2,   2.0,  0.44, 
 06/09/13, 10:00,  14.8,  99,  16.7,  17.8,  19.2,   0.5,  0.42, 
 06/09/13, 11:00,  15.5,  99,  16.8,  17.8,  19.1,   1.5,  0.61, 
 06/09/13, 12:00,  15.3,  99,  17.1,  17.7,  19.1,   2.0,  0.41, 
 06/09/13, 13:00,  15.6,  99,  17.2,  17.7,  19.1,   2.5,  0.50, 
 06/09/13, 14:00,  15.1,  99,  17.3,  17.7,  19.0,   4.0,  0.24, 
 06/09/13, 15:00,  15.3,  99,  17.5,  17.7,  18.9,   2.5,  0.20, 
 06/09/13, 16:00,  15.2,  99,  17.5,  17.7,  18.9,   1.0,  0.23, 
 06/09/13, 17:00,  15.1,  99,  17.5,  17.7,  18.9,   0.5,  0.11, 
 06/09/13, 18:00,  14.9,  99,  17.4,  17.7,  18.8,   1.0,  0.02, 
 06/09/13, 19:00,  13.5,  99,  17.4,  17.7,  18.8,   1.0,  0.00, 
 06/09/13, 20:00,  13.6,  99,  17.2,  17.7,  18.8,   1.0,  0.00, 
 06/09/13, 21:00,  14.0,  99,  17.2,  17.7,  18.7,   1.5,  0.00, 
 06/09/13, 22:00,  13.6,  99,  17.1,  17.7,  18.7,   1.0,  0.00, 
 06/09/13, 23:00,  13.5,  99,  16.9,  17.6,  18.7,   0.5,  0.00, 
 06/09/14, 00:00,  13.8,  99,  16.8,  17.6,  18.7,   0.0,  0.00, 
 06/09/14, 01:00,  13.0,  99,  16.7,  17.6,  18.6,   0.0,  0.00, 
 06/09/14, 02:00,  12.9,  99,  16.7,  17.6,  18.6,   1.5,  0.00, 
 06/09/14, 03:00,  12.7,  99,  16.6,  17.5,  18.6,   5.5,  0.00, 
 06/09/14, 04:00,  12.5,  99,  16.2,  17.4,  18.6,   7.0,  0.00, 
 06/09/14, 05:00,  12.4,  99,  16.0,  17.3,  18.5,   4.5,  0.00, 
 06/09/14, 06:00,  12.5,  99,  15.7,  17.2,  18.5,   3.0,  0.00, 
 06/09/14, 07:00,  12.6,  99,  15.7,  17.1,  18.4,   0.5,  0.02, 
 06/09/14, 08:00,  13.0,  99,  15.7,  17.0,  18.4,   1.0,  0.16, 
 06/09/14, 09:00,  14.2,  99,  15.7,  17.0,  18.4,   0.0,  0.86, 
 06/09/14, 10:00,  13.8,  99,  16.0,  16.9,  18.3,   0.0,  0.45, 
 06/09/14, 11:00,  14.2,  99,  16.3,  16.9,  18.3,   1.0,  0.62, 
 06/09/14, 12:00,  14.4,  99,  16.4,  16.9,  18.3,   0.0,  0.60, 
 06/09/14, 13:00,  14.5,  99,  16.6,  16.9,  18.4,   0.5,  0.37, 
 06/09/14, 14:00,  14.7,  99,  16.7,  16.9,  18.3,   0.0,  0.47, 
 06/09/14, 15:00,  14.5,  99,  16.8,  16.9,  18.2,   0.0,  0.26, 
 06/09/14, 16:00,  14.1,  99,  16.8,  17.0,  18.2,   0.0,  0.08, 
 06/09/14, 17:00,  13.9,  99,  16.8,  17.0,  18.2,   0.0,  0.06, 
 06/09/14, 18:00,  13.6,  99,  16.7,  17.0,  18.2,   0.0,  0.03, 
 06/09/14, 19:00,  13.6,  99,  16.7,  17.0,  18.2,   0.0,  0.00, 
 06/09/14, 20:00,  13.5,  99,  16.6,  17.1,  18.1,   0.0,  0.00, 
 06/09/14, 21:00,  13.4,  99,  16.6,  17.1,  18.1,   0.0,  0.00, 
 06/09/14, 22:00,  13.4,  99,  16.5,  17.1,  18.1,   0.0,  0.00, 
 06/09/14, 23:00,  13.3,  99,  16.5,  17.0,  18.1,   0.5,  0.00, 
 06/09/15, 00:00,  13.2,  99,  16.4,  17.0,  18.1,   0.0,  0.00, 
 06/09/15, 01:00,  13.1,  99,  16.4,  17.0,  18.1,   0.0,  0.00, 
 06/09/15, 02:00,  12.5,  99,  16.2,  17.0,  18.1,   0.0,  0.00, 
 06/09/15, 03:00,  12.5,  99,  16.2,  17.0,  18.1,   0.0,  0.00, 
 06/09/15, 04:00,  12.1,  99,  16.1,  16.9,  18.1,   0.5,  0.00, 
 06/09/15, 05:00,  12.2,  99,  16.0,  16.9,  18.0,   0.0,  0.00, 
 06/09/15, 06:00,  11.9,  99,  15.9,  16.9,  18.0,   0.0,  0.00, 
 06/09/15, 07:00,  12.7,  99,  15.8,  16.9,  18.0,   0.0,  0.21, 
 06/09/15, 08:00,  14.5,  99,  15.8,  16.8,  18.1,   0.0,  0.84, 
 06/09/15, 09:00,  14.6,  99,  15.9,  16.8,  18.0,   0.0,  1.50, 
 06/09/15, 10:00,  15.7,  99,  16.3,  16.8,  18.0,   0.0,  1.95, 
 06/09/15, 11:00,  16.2,  93,  16.8,  16.7,  18.0,   0.0,  1.45, 
 06/09/15, 12:00,  18.1,  86,  17.4,  16.8,  18.0,   0.0,  2.96, 
 06/09/15, 13:00,  18.5,  86,  18.4,  16.9,  18.0,   0.0,  2.97, 
 06/09/15, 14:00,  17.7,  89,  19.4,  17.0,  17.9,   0.0,  1.93, 
 06/09/15, 15:00,  19.2,  85,  19.5,  17.2,  17.9,   0.0,  1.31, 
 06/09/15, 16:00,  18.1,  83,  19.5,  17.4,  17.9,   0.0,  1.16, 
 06/09/15, 17:00,  17.1,  84,  19.4,  17.6,  17.9,   0.0,  0.88, 
 06/09/15, 18:00,  15.7,  94,  19.1,  17.8,  17.9,   0.5,  0.22, 
 06/09/15, 19:00,  14.8,  99,  18.9,  17.9,  17.9,   0.0,  0.00, 
 06/09/15, 20:00,  14.6,  99,  18.6,  18.0,  17.9,   0.0,  0.00, 
 06/09/15, 21:00,  14.4,  99,  18.4,  18.0,  17.9,   0.0,  0.00, 
 06/09/15, 22:00,  14.3,  99,  18.2,  18.0,  17.9,   0.0,  0.00, 
 06/09/15, 23:00,  13.8,  99,  18.1,  18.0,  17.9,   0.0,  0.00, 
 06/09/16, 00:00,  13.5,  99,  17.9,  18.0,  18.0,   0.0,  0.00, 
 06/09/16, 01:00,  13.3,  99,  17.7,  18.0,  18.0,   0.0,  0.00, 